[[{"header":{"parameterUnit":"m.s-1","parameterCategory":1,"la1":30.2991,"la2":30.254,"lo1":-89.0895,"lo2":-89.0444,"dy":0.0017,"dx":0.0017,"nx":28,"ny":28,"refTime":"2023-10-03T03:00:00:Z","depth":0,"parameterNumber":2,"parameterNumberName":"U-component_of_WINDS"},"data":[0,0,0,0,0,0,0,0,0,0,0,0,0,0,0,0,0,0,0,0,0,0,0,0,0,0,0,0,0,0,0,0,0,0,0,0,0,0,0,0,0,0,0,0,0,0,0,0,0,0,0,0,0,0,0,0,0,0,-5.8315,-5.8315,0,-5.8275,-5.8275,-5.8274,-5.8141,-5.8138,-5.8135,-5.8132,-5.8093,-5.8095,-5.8097,0,0,0,0,0,0,0,0,0,0,0,0,0,-5.8281,-5.8282,-5.8315,-5.8315,-5.8314,-5.8275,-5.8275,-5.8274,-5.8142,-5.8138,-5.8134,-5.8131,-5.8093,-5.8095,-5.8097,0,0,0,0,0,0,0,0,0,0,0,0,0,-5.8274,-5.8283,-5.8315,-5.8243,-5.8237,-5.8275,-5.8275,-5.8274,-5.8142,-5.8138,-5.8133,-5.8129,-5.8092,-5.8094,-5.8097,-5.8203,0,0,-5.8105,-5.8106,0,0,0,0,0,0,0,0,-5.8275,-5.8276,-5.8255,-5.8248,-5.8241,-5.8208,-5.8248,-5.825,-5.8143,-5.8178,-5.8132,-5.8127,-5.8135,-5.8134,-5.8136,-5.8201,-5.8199,-5.8105,-5.8107,-5.8108,-5.8109,0,0,0,0,0,0,0,-5.8275,-5.8277,-5.8299,-5.8254,-5.8246,-5.8214,-5.8208,-5.8248,-5.8182,-5.8175,-5.8165,-5.8162,-5.8131,-5.8134,-5.8135,-5.8199,-5.8105,-5.8108,-5.8109,-5.811,-5.8349,-5.8354,0,0,0,0,0,0,-5.8286,-5.8278,-5.8301,-5.8298,-5.8247,-5.8219,-5.8212,-5.8223,-5.8182,-5.8171,-5.8166,-5.8156,-5.8132,-5.8132,-5.8133,-5.8253,-5.8108,-5.811,-5.8112,-5.8345,-5.835,-5.8355,0,0,0,0,0,0,-5.8285,-5.8289,-5.8302,-5.8285,-5.8285,-5.8224,-5.8238,-5.8225,-5.8228,-5.8175,-5.8163,-5.8181,-5.8128,-5.8129,-5.8186,-5.825,-5.8112,-5.8114,-5.8339,-5.8346,-5.8353,-5.8495,0,0,0,0,0,0,-5.8285,-5.829,-5.8328,-5.8287,-5.8286,-5.8356,-5.8242,-5.8227,-5.8233,-5.8219,-5.8186,-5.8176,-5.8125,-5.8183,-5.8189,-5.8251,-5.8116,-5.8333,-5.8342,-5.8351,-5.8484,-5.8506,-5.8525,0,0,0,0,0,-5.8284,-5.837,-5.833,-5.8334,-5.8332,-5.836,-5.8359,-5.8298,-5.8238,-5.8277,-5.8243,-5.8177,-5.8243,-5.819,-5.8196,-5.8259,-5.8328,-5.834,-5.835,-5.8475,-5.8502,-5.8525,0,0,0,0,0,0,-5.8419,-5.8363,-5.8319,-5.8393,-5.8383,-5.8337,-5.8383,-5.8328,-5.8334,-5.8321,-5.8246,-5.824,-5.8308,-5.829,-5.8232,-5.836,-5.8275,-5.8287,-5.8368,-5.8393,-5.8413,-5.8415,-5.8118,0,0,0,0,0,-5.8458,-5.8484,-5.8434,-5.8505,-5.8501,-5.8444,-5.8454,-5.8408,-5.8393,-5.8388,-5.8358,-5.8348,-5.8366,-5.8379,-5.8393,-5.8483,-5.8474,-5.853,-5.855,-5.8567,-5.8577,-5.8624,-5.8648,-5.8391,-5.8391,-5.8391,0,0,-5.8537,-5.851,-5.8531,-5.8531,-5.8517,-5.8546,-5.8441,-5.8476,-5.8497,-5.8393,-5.8445,-5.8424,-5.8407,-5.8482,-5.8513,-5.8469,-5.8647,-5.8581,-5.8595,-5.8596,-5.8638,-5.8662,-5.8684,-5.8398,-5.8397,-5.8396,0,0,-5.8696,-5.8679,-5.8735,-5.8724,-5.8705,-5.8667,-5.8681,-5.8645,-5.8627,-5.8678,-5.8601,-5.8627,-5.8659,-5.8651,-5.8651,-5.8812,-5.8751,-5.8819,-5.8923,-5.897,-5.899,-5.9007,-5.9063,-5.9085,-5.883,-5.8831,-5.8831,0,-5.8797,-5.8837,-5.8772,-5.8812,-5.8815,-5.8724,-5.8782,-5.8775,-5.8762,-5.8766,-5.8717,-5.8758,-5.874,-5.8811,-5.8851,-5.8855,-5.8868,-5.882,-5.8992,-5.9009,-5.9024,-5.9077,-5.9099,-5.8839,-5.8838,-5.8837,-5.8836,0,-5.8962,-5.8992,-5.904,-5.9029,-5.9038,-5.9087,-5.9031,-5.9049,-5.9004,-5.8972,-5.9026,-5.9003,-5.901,-5.9025,-5.8981,-5.9091,-5.9063,-5.9005,-5.8917,-5.9058,-5.9106,-5.9126,-5.8851,-5.8848,-5.8845,-5.8843,0,0,-5.9199,-5.9155,-5.9173,-5.9168,-5.9142,-5.9164,-5.9211,-5.9218,-5.9234,-5.923,-5.9267,-5.9299,-5.9245,-5.9245,-5.9201,-5.9242,-5.937,-5.9178,-5.9176,-5.9213,-5.9488,-5.953,-5.9555,-5.9332,-5.9335,-5.9338,-5.9489,0,-5.9348,-5.9423,-5.9368,-5.9453,-5.948,-5.9396,-5.9437,-5.9426,-5.9399,-5.9419,-5.9389,-5.9412,-5.934,-5.934,-5.9377,-5.9347,-5.9424,-5.9335,-5.9365,-5.9366,-5.9368,-5.958,-5.9624,-5.9767,-5.9508,-5.9511,-5.9513,0,-5.953,-5.9534,-5.9622,-5.9592,-5.9601,-5.9638,-5.9642,-5.9662,-5.965,-5.9627,-5.963,-5.9575,-5.962,-5.9538,-5.9599,-5.954,-5.9549,-5.9537,-5.9541,-5.9538,-5.9446,-5.9581,-5.9811,-5.9832,-5.9542,-5.954,-5.9538,0,-5.9693,-5.972,-5.9776,-5.9774,-5.9741,-5.977,-5.9757,-5.974,-5.9749,-5.9754,-5.9759,-5.9769,-5.9774,-5.9784,-5.9734,-5.9679,-5.9802,-5.9715,-5.9784,-5.9785,-5.981,-5.9808,-6.0042,-5.9822,-5.9822,-5.9821,-5.9821,0,-5.9862,-5.9919,-5.9848,-5.9882,-5.9944,-5.9882,-5.9945,-5.9925,-5.9911,-5.9941,-5.9871,-5.9901,-5.9835,-5.9858,-5.9821,-5.9877,-5.988,-5.9863,-5.9852,-5.9867,-5.9869,-5.987,-5.9857,-5.9827,-5.9826,-5.9825,-5.9824,0,-6.0051,-6.0007,-6.0062,-6.0027,-6.002,-6.0067,-6.0038,-6.0069,-6.0039,-6.0077,-6.0083,-6.0036,-6.006,-6.0013,-6.0031,-6.0006,-6.0084,-6.0059,-6.0088,-6.0079,-6.015,-6.0143,-6.0389,-6.0418,-6.0183,-6.0185,-6.0187,0,-6.016,-6.0202,-6.0173,-6.0188,-6.0179,-6.0204,-6.0213,-6.0156,-6.0169,-6.016,-6.0192,-6.0211,-6.0221,-6.0265,-6.0232,-6.0246,-6.0219,-6.0305,-6.022,-6.0235,-6.0218,-6.0214,-6.0218,-6.0321,-6.0324,-6.0326,-6.0328,0,-6.0359,-6.0336,-6.0351,-6.036,-6.0373,-6.0377,-6.0376,-6.0393,-6.0333,-6.0351,-6.0375,-6.0384,-6.0403,-6.0422,-6.0429,-6.0418,-6.0363,-6.0356,-6.0372,-6.0386,-6.0401,-6.0392,-6.0132,-6.0349,-6.0347,-6.0346,-6.0344,-6.0344,-6.0509,-6.0542,-6.0528,-6.0548,-6.0542,-6.0544,-6.0571,-6.0546,-6.0565,-6.0575,-6.0542,-6.0574,-6.0563,-6.0567,-6.0562,-6.0586,-6.0548,-6.0572,-6.0578,-6.0584,-6.0594,-6.04,-6.0588,-6.0587,-6.0587,-6.0586,-6.0586,0,-6.0701,-6.0689,-6.0709,-6.071,-6.0727,-6.0677,-6.0674,-6.0691,-6.072,-6.0715,-6.0728,-6.0757,-6.0776,-6.0748,-6.0762,-6.0788,-6.0763,-6.0793,-6.0789,-6.0787,-6.0628,-6.0612,-6.0813,-6.0813,-6.0813,-6.0813,-6.0813,-6.0813,-6.0803,-6.0857,-6.0833,-6.0884,-6.0871,-6.0902,-6.0905,-6.0907,-6.0902,-6.0937,-6.0953,-6.0935,-6.092,-6.0934,-6.095,-6.0941,-6.0949,-6.0987,-6.097,-6.0821,-6.0799,-6.0777,-6.0761,-6.099,-6.0991,-6.1126,-6.1127,-6.1128]},{"header":{"parameterUnit":"m.s-1","parameterCategory":1,"la1":30.2991,"la2":30.254,"lo1":-89.0895,"lo2":-89.0444,"dy":0.0017,"dx":0.0017,"nx":28,"ny":28,"refTime":"2023-10-03T03:00:00:Z","depth":0,"parameterNumber":3,"parameterNumberName":"V-component_of_WINDS"},"data":[0,0,0,0,0,0,0,0,0,0,0,0,0,0,0,0,0,0,0,0,0,0,0,0,0,0,0,0,0,0,0,0,0,0,0,0,0,0,0,0,0,0,0,0,0,0,0,0,0,0,0,0,0,0,0,0,0,0,2.0673,2.0673,0,2.0659,2.0659,2.0659,2.0686,2.0687,2.0688,2.0689,2.0669,2.0668,2.0667,0,0,0,0,0,0,0,0,0,0,0,0,0,2.0718,2.0717,2.0673,2.0673,2.0672,2.0659,2.0659,2.0659,2.0686,2.0687,2.0688,2.0689,2.067,2.0668,2.0667,0,0,0,0,0,0,0,0,0,0,0,0,0,2.0701,2.0717,2.0673,2.0684,2.0685,2.0659,2.0659,2.0659,2.0686,2.0687,2.0688,2.069,2.067,2.0669,2.0667,2.0627,0,0,2.066,2.0659,0,0,0,0,0,0,0,0,2.0702,2.0699,2.0683,2.0684,2.0685,2.0676,2.0668,2.0648,2.0685,2.0685,2.0689,2.069,2.067,2.0668,2.0663,2.0626,2.0625,2.066,2.0659,2.0658,2.0657,0,0,0,0,0,0,0,2.0703,2.07,2.0667,2.0683,2.0684,2.0689,2.0688,2.0664,2.067,2.0685,2.0687,2.0686,2.0671,2.0664,2.0662,2.0625,2.066,2.0658,2.0657,2.0656,2.0557,2.0555,0,0,0,0,0,0,2.0703,2.07,2.0668,2.0667,2.0697,2.0687,2.0686,2.0677,2.0671,2.0671,2.0685,2.0687,2.0667,2.0665,2.0662,2.0615,2.0658,2.0656,2.0655,2.0558,2.0556,2.0555,0,0,0,0,0,0,2.0704,2.07,2.0668,2.0684,2.0681,2.0685,2.0675,2.0676,2.067,2.067,2.0671,2.0677,2.0668,2.0665,2.0636,2.0615,2.0655,2.0653,2.056,2.0557,2.0555,2.0522,0,0,0,0,0,0,2.0705,2.07,2.0686,2.0684,2.068,2.0644,2.0674,2.0675,2.0667,2.067,2.0663,2.0663,2.0669,2.0639,2.0634,2.0613,2.0652,2.0561,2.0559,2.0556,2.0525,2.0519,2.0514,0,0,0,0,0,2.0707,2.0675,2.0685,2.0681,2.0662,2.0642,2.064,2.0649,2.0665,2.065,2.0651,2.0664,2.0619,2.0636,2.0631,2.0609,2.0563,2.0559,2.0556,2.0528,2.052,2.0514,0,0,0,0,0,0,2.0672,2.0675,2.0686,2.0653,2.0648,2.0647,2.0628,2.064,2.0628,2.0632,2.0641,2.064,2.0609,2.0606,2.0625,2.0571,2.0593,2.0589,2.0573,2.0566,2.0561,2.0561,2.065,0,0,0,0,0,2.0661,2.0646,2.0649,2.062,2.0617,2.0624,2.0615,2.0623,2.0617,2.0614,2.0612,2.0604,2.0588,2.0577,2.0563,2.0526,2.0524,2.0508,2.0503,2.0498,2.0493,2.0474,2.0467,2.0544,2.0544,2.0544,0,0,2.0637,2.0637,2.0627,2.0614,2.061,2.0593,2.0621,2.0602,2.0589,2.061,2.0584,2.0582,2.0574,2.0541,2.0527,2.0538,2.0472,2.0494,2.049,2.0488,2.047,2.0463,2.0456,2.0542,2.0542,2.0543,0,0,2.0586,2.0584,2.0561,2.0557,2.0553,2.0558,2.0552,2.055,2.0551,2.0525,2.0541,2.0526,2.0498,2.0492,2.0485,2.0434,2.0446,2.0429,2.0399,2.0381,2.0374,2.0369,2.035,2.0344,2.0425,2.0425,2.0425,0,2.0556,2.0533,2.0546,2.0527,2.052,2.0542,2.0517,2.0513,2.0503,2.0497,2.0511,2.0478,2.0474,2.0441,2.0429,2.0423,2.0416,2.0429,2.0375,2.0369,2.0364,2.0347,2.034,2.0423,2.0423,2.0424,2.0424,0,2.0497,2.0481,2.0462,2.0454,2.0446,2.0424,2.0433,2.0423,2.0432,2.0435,2.0409,2.0405,2.0391,2.0384,2.0391,2.0352,2.0359,2.0373,2.0396,2.0355,2.0339,2.0332,2.042,2.0421,2.0422,2.0422,0,0,2.042,2.0423,2.0415,2.0413,2.0411,2.0398,2.0377,2.0365,2.0356,2.0349,2.0331,2.0309,2.0324,2.0316,2.0323,2.0307,2.0267,2.0324,2.0324,2.0313,2.0223,2.0211,2.0203,2.0275,2.0274,2.0273,2.0223,0,2.0368,2.0334,2.0347,2.0311,2.0296,2.0318,2.03,2.0296,2.0299,2.0286,2.0289,2.0273,2.0293,2.0289,2.0274,2.0275,2.0249,2.0279,2.0257,2.0257,2.0258,2.0194,2.0181,2.0134,2.0217,2.0216,2.0215,0,2.0303,2.0296,2.026,2.0262,2.0256,2.024,2.0231,2.0219,2.0215,2.0218,2.0212,2.0223,2.0202,2.0227,2.0198,2.0218,2.021,2.021,2.0208,2.0205,2.0232,2.0189,2.0119,2.0112,2.0205,2.0206,2.0207,0,2.025,2.0232,2.0208,2.0205,2.0207,2.0195,2.0195,2.0193,2.0186,2.0178,2.0173,2.0162,2.0155,2.0146,2.0154,2.0171,2.0124,2.0149,2.0125,2.0124,2.0112,2.0112,2.0039,2.0109,2.0109,2.0109,2.0109,0,2.019,2.0167,2.0185,2.0169,2.0144,2.0159,2.0133,2.0135,2.0134,2.0119,2.0137,2.0122,2.0135,2.0121,2.0127,2.0102,2.0099,2.0101,2.0102,2.0098,2.0098,2.0092,2.0095,2.0107,2.0108,2.0108,2.0109,0,2.0126,2.0137,2.0112,2.0117,2.0118,2.0099,2.0103,2.0089,2.0095,2.0076,2.0072,2.008,2.0065,2.0073,2.0057,2.0062,2.0029,2.0036,2.0031,2.0032,2.0007,2.0009,1.9927,1.9917,1.9994,1.9993,1.9993,0,2.0086,2.007,2.0074,2.0066,2.0066,2.0053,2.0047,2.0061,2.0053,2.0049,2.0035,2.0023,2.0013,1.9989,1.9992,1.998,1.9986,1.9958,1.9984,1.9981,1.9985,1.9985,1.9984,1.9952,1.9951,1.9951,1.995,0,2.0015,2.0022,2.0013,2.0006,1.9998,1.9993,1.9989,1.9981,1.9996,1.9986,1.9973,1.9966,1.9951,1.9938,1.9929,1.9927,1.9941,1.9943,1.9936,1.9931,1.9929,1.9929,2.0015,1.9944,1.9944,1.9945,1.9945,1.9945,1.9962,1.9948,1.9949,1.9939,1.9938,1.9934,1.9922,1.9927,1.9917,1.9907,1.9916,1.99,1.9898,1.9887,1.9884,1.9871,1.9882,1.9873,1.9871,1.9868,1.9864,1.9933,1.987,1.987,1.987,1.987,1.987,0,1.9891,1.9893,1.9884,1.9879,1.9871,1.9887,1.9884,1.9876,1.9862,1.986,1.9851,1.9836,1.9824,1.9828,1.9817,1.9806,1.9812,1.9802,1.9802,1.9802,1.9855,1.9862,1.9798,1.9798,1.9798,1.9798,1.9798,1.9798,1.9853,1.9831,1.9838,1.9816,1.9819,1.9804,1.9801,1.9798,1.9797,1.978,1.9771,1.9774,1.9774,1.9764,1.9754,1.9755,1.975,1.9738,1.9742,1.9791,1.9798,1.9805,1.9811,1.9737,1.9737,1.969,1.9689,1.9689]}]]